Regional Weather Roundup
Issued by NWS

Home | Current Version | Previous Version | Text Only | Print | Product List | Glossary On
Versions: 1 2 3 4 5 6 7 8 9 10 11 12 13 14 15 16 17 18 19 20 21 22 23 24 25 26 27 28 29 30 31 32 33 34 35 36 37 38 39 40 41 42 43 44 45 46 47 48 49 50
000
ASUS43 KMPX 211001
RWRMN
WEATHER ROUNDUP FOR MINNESOTA
NATIONAL WEATHER SERVICE TWIN CITIES/CHANHASSEN MN
400 AM CST WED FEB 21 2018


NOTE: "FAIR" INDICATES FEW OR NO CLOUDS BELOW 12,000 FEET WITH NO
SIGNIFICANT WEATHER AND/OR OBSTRUCTIONS TO VISIBILITY. N/A MEANS
CURRENT SKY AND/OR WEATHER CONDITIONS ARE NOT AVAILABLE.

MNZ060>063-068>070-211100-
   Twin Cities Metro

CITY           SKY/WX    TMP DP  RH WIND       PRES   REMARKS
TWIN CITIES    FAIR       5   1  83 W6        30.47R WCI  -6
ST PAUL        FAIR       6   0  76 NW5       30.49R WCI  -3
CRYSTAL        FAIR       4  -2  76 SW6       30.46R WCI  -7
BLAINE         FAIR       5   0  78 SW5       30.45R WCI  -4
LAKEVILLE      FAIR       1  -2  85 CALM      30.47R
EDEN PRAIRIE   FAIR       2  -3  80 SW6       30.47R WCI  -9
SOUTH ST PAUL  FAIR       5   0  78 W7        30.48R WCI  -7
LAKE ELMO      FAIR       3   0  85 SW5       30.46R WCI  -6
$$
MNZ001>005-007-008-013>017-022>024-027-028-211100-
   Northwest Minnesota

CITY           SKY/WX    TMP DP  RH WIND       PRES   REMARKS
BEMIDJI        FAIR      -4  -7  84 S5        30.28R WCI -14
HALLOCK        FAIR      -2  -8  78 SW12      30.25S WCI -20
ROSEAU         FAIR       0  -6  78 SW12      30.23R WCI -18
WARROAD        FAIR      -2  -8  78 SW10      30.21S WCI -19
THIEF RVR FALL FAIR      -4  -9  79 SW15      30.28R WCI -25
CROOKSTON      FAIR      -6 -11  77 S10       30.32S WCI -23
FOSSTON        FAIR      -9 -13  84 S9        30.30R WCI -27
DETROIT LAKES  FAIR      -2  -8  78 SW3       30.34R
MOORHEAD       FAIR      -6 -11  77 S7        30.38R WCI -20
PARK RAPIDS    FAIR      -8 -14  74 SW8       30.30R WCI -24
MAHNOMEN       FAIR      -9 -14  80 SW12      30.31R WCI -29
$$
MNZ006-009>011-018-025>026-211100-
   North Central Minnesota

CITY           SKY/WX    TMP DP  RH WIND       PRES   REMARKS
BAUDETTE       FAIR      -6 -10  83 SW7       30.21R WCI -20
FLAG ISLAND    FAIR      -2  -6  84 SW13      30.18R WCI -21
INTL FALLS     FAIR      -7 -11  83 SW5       30.24R WCI -18
WASKISH        FAIR       0  -6  78 SW12      30.24F WCI -18
BIG FORK       FAIR      -9 -15  77 CALM      30.26R
LONGVILLE      FAIR     -17 -20  83 CALM      30.32R
GRAND RAPIDS   FAIR      -1  -5  82 SW5       30.31R WCI -11
CRANE LAKE     FAIR     -11 -15  84 CALM      30.28S
ORR            FAIR      -4  -9  77 CALM      30.23R
COOK             N/A     -6  -8  92 SW3       30.27R
WALKER         FAIR      -2  -7  80 SW8       30.30R WCI -17
$$
MNZ012-019>021-037-211100-
   Northeast Minnesota

CITY           SKY/WX    TMP DP  RH WIND       PRES   REMARKS
DULUTH         FAIR      -3  -8  79 W12       30.29R WCI -21
ELY            FLURRIES  -2  -6  84 SW3       30.25R
HIBBING        FAIR     -15 -19  82 CALM      30.28R
EVELETH        FAIR     N/A N/A N/A CALM      30.29R
DULUTH HARBOR  FAIR       1  -2  85 SW8       30.40R WCI -12
TWO HARBORS    FAIR       3  -2  78 W8        30.29R WCI -10
G MARAIS ARPRT FAIR       0  -6  78 W6        30.17R WCI -12
$$
MNZ029>031-032-039>041-046>048-054>057-064-211100-
   West Central Minnesota

CITY           SKY/WX    TMP DP  RH WIND       PRES   REMARKS
FERGUS FALLS   FAIR      -6 -11  77 SW3       30.42R
WHEATON        PTCLDY    -2  -9  71 SW5       30.45R WCI -12
MORRIS         CLEAR     -4  -9  77 SW8       30.42R WCI -19
ALEXANDRIA     FAIR       0  -6  76 W12       30.38R WCI -17
ELBOW LAKE     FAIR      -5 -10  79 SW9       30.41R WCI -21
WADENA         FAIR      -6  -9  84 W9        30.35R WCI -22
GLENWOOD       FAIR      -8  -9  92 SW6       30.41R WCI -21
APPLETON       CLEAR     -2  -9  71 W9        30.46R WCI -18
ORTONVILLE     CLOUDY    -4  -9  77 W7        30.45R WCI -18
MADISON        CLEAR      0  -8  71 SW6       30.48R WCI -12
WILLMAR        FAIR      -6  -9  84 W6        30.47R WCI -18
$$
MNZ033>034-036-042>043-049>051-058-059-211100-
   Central Minnesota

CITY           SKY/WX    TMP DP  RH WIND       PRES   REMARKS
ST CLOUD       FAIR      -4  -7  87 SW6       30.43R WCI -16
SAUK CENTRE    FAIR      -5  -9  81 W3        30.41R
PAYNESVILLE    FAIR      -8 -11  87 W6        30.44R WCI -21
AITKIN         FAIR      -2  -6  84 SW5       30.34R WCI -12
PINE RIVER     FAIR     -15 -18  84 CALM      30.36R
BRAINERD       FAIR      -2  -8  76 SW7       30.36R WCI -15
STAPLES        FAIR      -2  -8  78 SW6       30.36R WCI -14
LONG PRAIRIE   FAIR      -9 -15  77 S3        30.39R
LITTLE FALLS   FAIR      -6 -15  65 CALM      30.41R
LITCHFIELD     FAIR       0  -6  78 W3        30.45R
BUFFALO        FAIR      -1  -5  82 S3        30.47R
MAPLE LAKE     FAIR       0  -4  85 SW5       30.45R WCI -10
HUTCHINSON     FAIR      -2  -6  82 SW5       30.47R WCI -12
$$
MNZ037-044-045-052-053-211100-
   East Central Minnesota

CITY           SKY/WX    TMP DP  RH WIND       PRES   REMARKS
PRINCETON      FAIR       0  -6  78 SW3       30.42R
MORA           FAIR       0  -6  78 SW5       30.42R WCI -10
CAMBRIDGE        N/A      1  -6  71 SW3       30.44R
RUSH CITY      MOCLDY     0  -4  85 CALM      30.43R
MOOSE LAKE     FAIR      -4  -8  84 SW5       30.36R WCI -15
HINCKLEY       FAIR      -4  -6  92 SW3       30.40R
CLOQUET        FAIR       0  -6  78 W8        30.32R WCI -15
MCGREGOR       FAIR       0  -4  85 SW6       30.35R WCI -12
$$
MNZ071>073-080-081-089-090-097-098-211100-
   Southwest Minnesota

CITY           SKY/WX    TMP DP  RH WIND       PRES   REMARKS
MONTEVIDEO     CLOUDY     0  -6  78 W6        30.48R WCI -12
GRANITE FALLS  CLOUDY    -3  -8  79 W6        30.50R WCI -15
CANBY          CLOUDY     1  -6  71 SW10      30.48R WCI -14
MARSHALL       CLOUDY    -3  -8  79 W12       30.49R WCI -21
REDWOOD FALLS  CLOUDY     1  -5  75 W9        30.48R WCI -14
OLIVIA         CLOUDY    -2  -8  78 W7        30.47R WCI -16
PIPESTONE      CLOUDY    -2  -9  71 W6        30.44R WCI -14
WORTHINGTON    CLOUDY    -1  -5  82 W8        30.47R WCI -15
JACKSON        CLOUDY     1  -4  78 W7        30.46S WCI -11
TRACY          CLOUDY    -1  -6  80 SW7       30.47R WCI -15
SLAYTON        PTCLDY    -2  -7  79 W8        30.45R WCI -16
$$
MNZ065>067-074>077-082>085-091>093-211100-
   South Central Minnesota

CITY           SKY/WX    TMP DP  RH WIND       PRES   REMARKS
MANKATO        FAIR       4  -1  80 W7        30.49R WCI  -8
NEW ULM        CLEAR      0  -8  71 W7        30.49R WCI -13
ST JAMES       CLEAR      1  -4  78 W6        30.50R WCI -10
FAIRMONT       CLEAR      1  -3  83 W8        30.49R WCI -13
GLENCOE        FAIR       1  -3  80 SW3       30.47R
FARIBAULT      FAIR       1   0  92 CALM      30.46S
OWATONNA       FAIR       1  -2  85 CALM      30.46R
WASECA         FAIR       3   0  85 CALM      30.48S
ALBERT LEA     FAIR       7   0  72 CALM      30.45R
$$
MNZ078>079-086>088-094>096-211100-
   Southeast Minnesota

CITY           SKY/WX    TMP DP  RH WIND       PRES   REMARKS
ROCHESTER      FAIR       5   2  87 NW10      30.43R WCI -10
RED WING       FAIR       1  -2  85 CALM      30.47R
STANTON        FAIR       4  -1  78 W3        30.46R
DODGE CENTER   FAIR       3   0  85 W3        30.43R
WINONA         FAIR      10   5  79 NW6       30.47R WCI   1
AUSTIN         FAIR       7   1  78 NW6       30.44S WCI  -3
PRESTON        FAIR       7   2  81 NW6       30.43R WCI  -4
$$
ABBREVIATIONS USED IN REMARKS
   TC - TEMPERATURES IN CELSIUS
  WCI - WIND CHILL INDEX
   HX - HEAT INDEX
  VSB - VISIBILITY
$$




USA.gov is the U.S. government's official web portal to all federal, state and local government web resources and services.